User: anonymous   Login
Location: Bukovany
(49.8234°N, 14.6297°E)
Time: 07:39:15
(UTC+00:00)
Language:

Cosmos 1869 - Orbit

View from above orbital plane
View from above orbital plane
View from above satellite
View from above satellite

Ground track
Ground track

The orbit is defined by the following mean orbital elements,

1 18214U          26017.93107456 +.00000000 +00000-0 +31310-3 0 00001
2 18214  82.5106 253.3633 0016847 240.8302 119.1256 15.33949491    03
Epoch (UTC): 17 January 2026 22:20:44
Eccentricity: 0.0016847
inclination: 82.5106°
perigee height: 453 km
apogee height: 476 km
right ascension of ascending node: 253.3633°
argument of perigee: 240.8302°
revolutions per day: 15.33949491
mean anomaly at epoch: 119.1256°

The dashed part of the orbit path shows where the satellite is in the earth's shadow,  

DLR